JBU755 KBOS-KFLL

Flight info

Callsign JBU755
Flight time N/A
Altitude 36000
Route SSOXS7 SSOXS Q167 RIFLE HEADI Q97 KALDA Q161 CHIEZ Y291 MAJIK CUUDA3
Aircraft A21N/M-SDE3FGHIRWY/LB1

Departure

Time 2026-05-03 23:44
Airport Boston Logan International Airport (KBOS)

Arrival

Time N/A
Airport Fort Lauderdale Hollywood International Airport (KFLL)
Time Latitude Longitude Altitude Speed Heading
2026-05-03 22:58 42.36503 -71.01437 18 ft 0 kts 319°
2026-05-03 23:28 42.36497 -71.01430 18 ft 2 kts 319°
2026-05-03 23:28 42.36487 -71.01419 18 ft 0 kts 319°
2026-05-03 23:29 42.36478 -71.01408 18 ft 2 kts 297°
2026-05-03 23:29 42.36475 -71.01388 18 ft 2 kts 269°
2026-05-03 23:29 42.36478 -71.01368 18 ft 2 kts 240°
2026-05-03 23:29 42.36488 -71.01353 18 ft 1 kts 212°
2026-05-03 23:30 42.36494 -71.01348 17 ft 1 kts 201°
2026-05-03 23:30 42.36497 -71.01347 17 ft 0 kts 205°
2026-05-03 23:33 42.36491 -71.01350 17 ft 1 kts 206°
2026-05-03 23:33 42.36481 -71.01356 18 ft 1 kts 206°
2026-05-03 23:33 42.36469 -71.01365 18 ft 2 kts 207°
2026-05-03 23:34 42.36454 -71.01374 18 ft 2 kts 204°
2026-05-03 23:34 42.36435 -71.01385 18 ft 3 kts 202°
2026-05-03 23:34 42.36410 -71.01396 18 ft 5 kts 194°
2026-05-03 23:34 42.36360 -71.01366 18 ft 12 kts 128°
2026-05-03 23:35 42.36312 -71.01264 18 ft 13 kts 121°
2026-05-03 23:35 42.36263 -71.01156 18 ft 13 kts 122°
2026-05-03 23:35 42.36232 -71.01067 18 ft 10 kts 112°
2026-05-03 23:35 42.36202 -71.00969 18 ft 12 kts 112°
2026-05-03 23:36 42.36166 -71.00860 17 ft 13 kts 114°
2026-05-03 23:36 42.36153 -71.00822 17 ft 0 kts 114°
2026-05-03 23:36 42.36149 -71.00809 17 ft 2 kts 114°
2026-05-03 23:36 42.36138 -71.00776 17 ft 5 kts 114°
2026-05-03 23:37 42.36117 -71.00711 17 ft 8 kts 112°
2026-05-03 23:37 42.36098 -71.00629 17 ft 10 kts 107°
2026-05-03 23:37 42.36079 -71.00552 16 ft 0 kts 110°
2026-05-03 23:37 42.36076 -71.00539 16 ft 3 kts 110°
2026-05-03 23:38 42.36058 -71.00477 16 ft 12 kts 110°
2026-05-03 23:38 42.36032 -71.00377 16 ft 9 kts 108°
2026-05-03 23:38 42.36010 -71.00286 15 ft 10 kts 108°
2026-05-03 23:38 42.35985 -71.00186 15 ft 11 kts 109°
2026-05-03 23:39 42.35964 -71.00114 15 ft 7 kts 117°
2026-05-03 23:39 42.35931 -71.00048 15 ft 9 kts 131°
2026-05-03 23:39 42.35906 -71.00012 14 ft 0 kts 135°
2026-05-03 23:41 42.35897 -71.00000 15 ft 5 kts 135°
2026-05-03 23:41 42.35853 -70.99941 14 ft 12 kts 135°
2026-05-03 23:41 42.35784 -70.99848 14 ft 14 kts 135°
2026-05-03 23:41 42.35711 -70.99751 14 ft 15 kts 135°
2026-05-03 23:42 42.35635 -70.99651 14 ft 15 kts 135°
2026-05-03 23:42 42.35571 -70.99538 14 ft 13 kts 87°
2026-05-03 23:42 42.35618 -70.99442 14 ft 12 kts 34°
2026-05-03 23:42 42.35686 -70.99456 14 ft 8 kts 321°
2026-05-03 23:43 42.35703 -70.99477 14 ft 0 kts 314°
2026-05-03 23:43 42.35754 -70.99548 14 ft 38 kts 314°
2026-05-03 23:43 42.36128 -71.00050 15 ft 109 kts 315°
2026-05-03 23:43 42.36812 -71.00973 81 ft 159 kts 314°
2026-05-03 23:44 42.37607 -71.02060 596 ft 170 kts 314°
2026-05-03 23:44 42.38477 -71.03210 1253 ft 181 kts 316°
2026-05-03 23:44 42.39407 -71.04352 1973 ft 185 kts 317°
2026-05-03 23:44 42.40403 -71.05505 2464 ft 195 kts 316°
2026-05-03 23:45 42.41152 -71.07100 2806 ft 215 kts 287°
2026-05-03 23:45 42.41211 -71.09206 3202 ft 238 kts 264°
2026-05-03 23:45 42.40570 -71.11344 3766 ft 257 kts 242°
2026-05-03 23:45 42.39519 -71.13304 4470 ft 259 kts 239°
2026-05-03 23:46 42.38472 -71.15253 4941 ft 261 kts 240°
2026-05-03 23:46 42.37404 -71.17268 5697 ft 263 kts 240°
2026-05-03 23:46 42.36151 -71.19058 6469 ft 275 kts 219°
2026-05-03 23:46 42.34298 -71.19915 7190 ft 293 kts 189°
2026-05-03 23:47 42.32263 -71.19488 7893 ft 306 kts 164°
2026-05-03 23:47 42.30260 -71.18452 8613 ft 310 kts 162°
2026-05-03 23:47 42.28235 -71.17390 9294 ft 314 kts 162°
2026-05-03 23:47 42.26226 -71.16269 9966 ft 320 kts 156°
2026-05-03 23:48 42.24306 -71.14668 10520 ft 330 kts 144°
2026-05-03 23:48 42.22487 -71.12635 10839 ft 346 kts 139°
2026-05-03 23:48 42.20653 -71.10425 11134 ft 362 kts 139°
2026-05-03 23:48 42.18749 -71.08131 11427 ft 377 kts 139°
2026-05-03 23:49 42.16739 -71.05750 11918 ft 385 kts 140°
2026-05-03 23:49 42.14664 -71.03478 12540 ft 387 kts 144°
2026-05-03 23:49 42.12467 -71.01367 13160 ft 390 kts 147°
2026-05-03 23:49 42.10257 -70.99306 13733 ft 393 kts 147°
2026-05-03 23:50 42.07966 -70.97180 14296 ft 397 kts 148°
2026-05-03 23:50 42.05690 -70.95071 14853 ft 401 kts 147°
2026-05-03 23:50 42.03399 -70.92943 15392 ft 405 kts 147°
2026-05-03 23:50 42.01089 -70.90794 15921 ft 408 kts 147°
2026-05-03 23:51 41.98743 -70.88610 16446 ft 411 kts 147°
2026-05-03 23:51 41.96374 -70.86407 16963 ft 414 kts 147°
2026-05-03 23:51 41.94024 -70.84222 17465 ft 417 kts 147°
2026-05-03 23:51 41.91611 -70.81980 17962 ft 420 kts 147°
2026-05-03 23:52 41.89192 -70.79739 18451 ft 423 kts 147°
2026-05-03 23:52 41.86753 -70.77571 18882 ft 425 kts 153°
2026-05-03 23:52 41.83987 -70.76324 19256 ft 417 kts 178°
2026-05-03 23:52 41.81155 -70.76582 19706 ft 402 kts 201°
2026-05-03 23:53 41.78674 -70.78058 20154 ft 391 kts 217°
2026-05-03 23:53 41.76320 -70.79938 20597 ft 393 kts 217°
2026-05-03 23:53 41.73990 -70.81793 21004 ft 397 kts 217°
2026-05-03 23:53 41.71592 -70.83660 21442 ft 399 kts 217°
2026-05-03 23:54 41.69168 -70.85513 21856 ft 401 kts 216°
2026-05-03 23:54 41.66732 -70.87353 22260 ft 404 kts 216°
2026-05-03 23:54 41.64281 -70.89191 22645 ft 406 kts 216°
2026-05-03 23:54 41.61811 -70.91039 23037 ft 408 kts 216°
2026-05-03 23:55 41.59338 -70.92883 23403 ft 410 kts 216°
2026-05-03 23:55 41.56897 -70.94801 23749 ft 408 kts 221°
2026-05-03 23:55 41.54720 -70.97144 24111 ft 401 kts 230°
2026-05-03 23:55 41.52862 -70.99915 24437 ft 396 kts 239°
2026-05-03 23:56 41.51306 -71.02908 24765 ft 395 kts 242°
2026-05-03 23:56 41.49788 -71.05969 25055 ft 398 kts 243°
2026-05-03 23:56 41.48263 -71.09055 25384 ft 399 kts 243°
2026-05-03 23:56 41.46748 -71.12103 25728 ft 399 kts 242°
2026-05-03 23:57 41.45194 -71.15216 26025 ft 401 kts 242°
2026-05-03 23:57 41.43653 -71.18292 26330 ft 402 kts 242°
2026-05-03 23:57 41.42105 -71.21376 26587 ft 404 kts 242°
2026-05-03 23:57 41.40548 -71.24471 26889 ft 405 kts 242°
2026-05-03 23:58 41.38965 -71.27610 27178 ft 406 kts 242°
2026-05-03 23:58 41.37395 -71.30720 27440 ft 408 kts 242°
2026-05-03 23:58 41.35812 -71.33856 27687 ft 410 kts 242°
2026-05-03 23:58 41.34230 -71.36990 27937 ft 411 kts 242°
2026-05-03 23:59 41.32632 -71.40158 28162 ft 414 kts 242°
2026-05-03 23:59 41.31025 -71.43340 28402 ft 416 kts 242°
2026-05-03 23:59 41.29432 -71.46488 28632 ft 417 kts 242°
2026-05-03 23:59 41.27814 -71.49682 28890 ft 418 kts 241°
2026-05-04 00:00 41.26174 -71.52914 29175 ft 419 kts 241°
2026-05-04 00:00 41.24566 -71.56077 29498 ft 418 kts 242°
2026-05-04 00:00 41.22943 -71.59268 29847 ft 416 kts 241°
2026-05-04 00:00 41.21329 -71.62439 30158 ft 415 kts 241°
2026-05-04 00:01 41.19719 -71.65598 30438 ft 414 kts 240°
2026-05-04 00:01 41.18094 -71.68784 30758 ft 414 kts 240°
2026-05-04 00:01 41.16486 -71.71935 30961 ft 414 kts 241°
2026-05-04 00:01 41.14877 -71.75082 31173 ft 413 kts 240°
2026-05-04 00:02 41.13285 -71.78207 31391 ft 413 kts 241°
2026-05-04 00:02 41.11679 -71.81372 31607 ft 412 kts 240°
2026-05-04 00:02 41.10097 -71.84486 31841 ft 411 kts 240°
2026-05-04 00:02 41.08511 -71.87601 32064 ft 409 kts 240°
2026-05-04 00:03 41.06926 -71.90712 32256 ft 409 kts 240°
2026-05-04 00:03 41.05352 -71.93820 32479 ft 407 kts 241°
2026-05-04 00:03 41.03880 -71.97000 32704 ft 405 kts 244°
2026-05-04 00:03 41.02540 -72.00259 32923 ft 403 kts 246°
2026-05-04 00:04 41.01325 -72.03593 33147 ft 401 kts 248°
2026-05-04 00:04 41.00155 -72.06909 33360 ft 400 kts 248°
2026-05-04 00:04 40.98970 -72.10254 33567 ft 399 kts 248°
2026-05-04 00:04 40.97800 -72.13563 33793 ft 399 kts 248°
2026-05-04 00:05 40.96635 -72.16854 34019 ft 398 kts 248°
2026-05-04 00:05 40.95465 -72.20162 34243 ft 398 kts 248°
2026-05-04 00:05 40.94214 -72.23412 34425 ft 399 kts 245°
2026-05-04 00:05 40.92828 -72.26590 34615 ft 401 kts 242°
2026-05-04 00:06 40.91314 -72.29678 34777 ft 403 kts 239°
2026-05-04 00:06 40.89679 -72.32657 34944 ft 405 kts 237°
2026-05-04 00:06 40.87884 -72.35588 35106 ft 408 kts 234°
2026-05-04 00:06 40.85986 -72.38370 35253 ft 410 kts 231°
2026-05-04 00:07 40.83972 -72.41048 35420 ft 412 kts 230°
2026-05-04 00:07 40.81972 -72.43691 35579 ft 412 kts 230°
2026-05-04 00:07 40.79880 -72.46311 35721 ft 414 kts 227°
2026-05-04 00:07 40.77682 -72.48776 35865 ft 416 kts 225°
2026-05-04 00:08 40.73238 -72.53605 35942 ft 417 kts 225°
2026-05-04 00:08 40.68979 -72.58741 35947 ft 413 kts 230°
2026-05-04 00:09 40.65173 -72.64349 35948 ft 409 kts 235°
2026-05-04 00:09 40.61554 -72.70123 35952 ft 410 kts 234°
2026-05-04 00:10 40.57936 -72.75883 35951 ft 410 kts 235°
2026-05-04 00:10 40.54317 -72.81644 35955 ft 410 kts 235°
2026-05-04 00:11 40.50697 -72.87399 35956 ft 409 kts 235°
2026-05-04 00:11 40.47078 -72.93137 35959 ft 409 kts 235°
2026-05-04 00:12 40.43454 -72.98876 35953 ft 409 kts 235°
2026-05-04 00:12 40.39822 -73.04618 35961 ft 409 kts 235°
2026-05-04 00:13 40.36201 -73.10332 35961 ft 408 kts 235°
2026-05-04 00:13 40.32596 -73.16007 35963 ft 408 kts 235°
2026-05-04 00:14 40.28958 -73.21724 35965 ft 408 kts 235°
2026-05-04 00:14 40.25337 -73.27406 35967 ft 408 kts 235°
2026-05-04 00:15 40.21704 -73.33097 35973 ft 407 kts 235°
2026-05-04 00:15 40.18088 -73.38750 35970 ft 407 kts 235°
2026-05-04 00:16 40.14468 -73.44396 35974 ft 406 kts 235°
2026-05-04 00:16 40.10840 -73.50048 35974 ft 405 kts 235°
2026-05-04 00:17 40.07238 -73.55650 35974 ft 405 kts 235°
2026-05-04 00:17 40.03630 -73.61245 35973 ft 404 kts 236°
2026-05-04 00:18 39.99812 -73.66665 35982 ft 409 kts 229°
2026-05-04 00:18 39.95414 -73.71401 35987 ft 413 kts 222°
2026-05-04 00:19 39.90464 -73.75356 35983 ft 421 kts 214°
2026-05-04 00:19 39.85099 -73.78461 35991 ft 426 kts 210°
2026-05-04 00:20 39.79636 -73.81381 35999 ft 425 kts 210°
2026-05-04 00:20 39.74131 -73.84313 36007 ft 425 kts 210°
2026-05-04 00:21 39.68697 -73.87201 36008 ft 426 kts 210°
2026-05-04 00:21 39.63222 -73.90106 36006 ft 426 kts 210°
2026-05-04 00:22 39.57733 -73.93014 36012 ft 425 kts 210°
2026-05-04 00:22 39.52291 -73.95890 36015 ft 424 kts 210°
2026-05-04 00:23 39.46881 -73.98850 36011 ft 420 kts 213°
2026-05-04 00:23 39.41784 -74.02364 36029 ft 413 kts 219°
2026-05-04 00:24 39.37067 -74.06459 36028 ft 406 kts 224°
2026-05-04 00:24 39.32724 -74.11038 36031 ft 402 kts 227°
2026-05-04 00:25 39.28429 -74.15710 36029 ft 403 kts 227°
2026-05-04 00:25 39.24178 -74.20332 36026 ft 402 kts 227°
2026-05-04 00:26 39.19916 -74.24963 36030 ft 401 kts 227°
2026-05-04 00:26 39.15644 -74.29600 36038 ft 400 kts 227°
2026-05-04 00:27 39.11412 -74.34182 36041 ft 399 kts 227°
2026-05-04 00:27 39.07182 -74.38757 36036 ft 400 kts 227°
2026-05-04 00:28 39.02947 -74.43335 36038 ft 399 kts 227°
2026-05-04 00:28 38.98686 -74.47929 36042 ft 399 kts 228°
2026-05-04 00:29 38.94480 -74.52467 36043 ft 396 kts 229°
2026-05-04 00:29 38.90422 -74.57191 36056 ft 393 kts 230°
2026-05-04 00:30 38.86389 -74.61904 36056 ft 392 kts 230°
2026-05-04 00:30 38.82376 -74.66595 36061 ft 392 kts 229°
2026-05-04 00:31 38.78334 -74.71311 36051 ft 391 kts 229°
2026-05-04 00:31 38.74279 -74.75926 36053 ft 394 kts 227°
2026-05-04 00:32 38.70047 -74.80344 36060 ft 394 kts 227°
2026-05-04 00:32 38.65801 -74.84782 36057 ft 392 kts 227°
2026-05-04 00:33 38.59465 -74.91371 36068 ft 391 kts 227°
2026-05-04 00:34 38.55273 -74.95724 36065 ft 390 kts 227°
2026-05-04 00:34 38.51138 -75.00169 36067 ft 387 kts 229°
2026-05-04 00:35 38.47082 -75.04641 36070 ft 389 kts 227°
2026-05-04 00:35 38.42767 -75.08823 36069 ft 391 kts 225°
2026-05-04 00:36 38.38422 -75.12965 36067 ft 390 kts 225°
2026-05-04 00:36 38.34061 -75.17115 36074 ft 390 kts 225°
2026-05-04 00:37 38.29719 -75.21233 36073 ft 390 kts 225°
2026-05-04 00:37 38.25374 -75.25351 36243 ft 391 kts 225°
2026-05-04 00:37 38.23225 -75.27380 36441 ft 389 kts 225°
2026-05-04 00:38 38.21052 -75.29436 36607 ft 389 kts 225°
2026-05-04 00:38 38.18877 -75.31490 36760 ft 388 kts 225°
2026-05-04 00:38 38.16718 -75.33524 36896 ft 389 kts 225°
2026-05-04 00:38 38.14534 -75.35585 37001 ft 390 kts 225°
2026-05-04 00:39 38.12379 -75.37616 37126 ft 390 kts 225°
2026-05-04 00:39 38.10203 -75.39665 37249 ft 390 kts 225°
2026-05-04 00:39 38.08015 -75.41721 37356 ft 390 kts 225°
2026-05-04 00:39 38.05837 -75.43768 37467 ft 391 kts 225°
2026-05-04 00:40 38.03631 -75.45782 37591 ft 392 kts 223°
2026-05-04 00:40 38.01404 -75.47721 37693 ft 393 kts 223°
2026-05-04 00:40 37.99141 -75.49678 37821 ft 392 kts 223°
2026-05-04 00:41 37.94633 -75.53586 37976 ft 394 kts 223°
2026-05-04 00:41 37.90108 -75.57452 38070 ft 397 kts 221°
2026-05-04 00:42 37.85253 -75.60903 38056 ft 402 kts 216°
2026-05-04 00:42 37.80119 -75.63753 38085 ft 407 kts 211°
2026-05-04 00:43 37.74683 -75.65973 38082 ft 414 kts 205°
2026-05-04 00:43 37.69152 -75.67930 38102 ft 412 kts 205°
2026-05-04 00:44 37.63647 -75.69872 38086 ft 412 kts 205°
2026-05-04 00:44 37.58125 -75.71812 38093 ft 410 kts 206°
2026-05-04 00:45 37.52625 -75.73740 38088 ft 410 kts 205°
2026-05-04 00:45 37.47151 -75.75657 38107 ft 410 kts 206°
2026-05-04 00:46 37.41658 -75.77576 38104 ft 408 kts 205°
2026-05-04 00:46 37.36197 -75.79481 38113 ft 408 kts 205°
2026-05-04 00:47 37.30755 -75.81374 38107 ft 406 kts 205°
2026-05-04 00:47 37.25286 -75.83276 38088 ft 406 kts 205°
2026-05-04 00:48 37.19858 -75.85159 38115 ft 407 kts 206°
2026-05-04 00:48 37.14393 -75.87070 38104 ft 404 kts 207°
2026-05-04 00:49 37.09153 -75.89381 38114 ft 396 kts 212°
2026-05-04 00:49 37.04227 -75.92249 38099 ft 388 kts 216°
2026-05-04 00:50 36.99532 -75.95487 38104 ft 387 kts 217°
2026-05-04 00:50 36.94814 -75.98747 38107 ft 387 kts 218°
2026-05-04 00:51 36.90116 -76.01996 38096 ft 386 kts 217°
2026-05-04 00:51 36.85450 -76.05222 38105 ft 386 kts 217°
2026-05-04 00:52 36.80771 -76.08454 38101 ft 385 kts 218°
2026-05-04 00:52 36.76077 -76.11694 38109 ft 385 kts 217°
2026-05-04 00:53 36.71418 -76.14903 38105 ft 385 kts 218°
2026-05-04 00:53 36.66714 -76.18143 38105 ft 384 kts 218°
2026-05-04 00:54 36.62056 -76.21345 38099 ft 383 kts 218°
2026-05-04 00:54 36.57388 -76.24547 38112 ft 383 kts 218°
2026-05-04 00:55 36.52766 -76.27716 38122 ft 381 kts 218°
2026-05-04 00:55 36.48125 -76.30891 38117 ft 381 kts 218°
2026-05-04 00:56 36.43494 -76.34055 38121 ft 382 kts 218°
2026-05-04 00:56 36.38866 -76.37215 38115 ft 380 kts 218°
2026-05-04 00:57 36.34221 -76.40383 38135 ft 380 kts 217°
2026-05-04 00:57 36.29591 -76.43532 38115 ft 379 kts 218°
2026-05-04 00:58 36.24991 -76.46663 38119 ft 378 kts 218°
2026-05-04 00:58 36.20377 -76.49792 38123 ft 378 kts 218°
2026-05-04 00:59 36.15752 -76.52930 38129 ft 378 kts 218°
2026-05-04 00:59 36.11164 -76.56036 38132 ft 378 kts 218°
2026-05-04 01:00 36.06561 -76.59147 38127 ft 378 kts 218°
2026-05-04 01:00 36.01955 -76.62255 38122 ft 379 kts 218°
2026-05-04 01:01 35.97321 -76.65380 38134 ft 379 kts 217°
2026-05-04 01:01 35.92698 -76.68494 38115 ft 378 kts 217°
2026-05-04 01:02 35.88009 -76.71476 38125 ft 379 kts 215°
2026-05-04 01:02 35.83307 -76.74360 38122 ft 378 kts 215°
2026-05-04 01:03 35.78584 -76.77247 38123 ft 378 kts 215°
2026-05-04 01:03 35.73870 -76.80123 38126 ft 379 kts 215°
2026-05-04 01:04 35.69164 -76.82989 38123 ft 378 kts 215°
2026-05-04 01:04 35.64456 -76.85853 38122 ft 377 kts 215°
2026-05-04 01:05 35.59772 -76.88695 38123 ft 378 kts 215°
2026-05-04 01:05 35.55088 -76.91554 38125 ft 376 kts 216°
2026-05-04 01:06 35.50391 -76.94437 38116 ft 376 kts 216°
2026-05-04 01:06 35.45751 -76.97283 38120 ft 375 kts 216°
2026-05-04 01:07 35.41078 -77.00144 38118 ft 376 kts 215°
2026-05-04 01:07 35.36400 -77.03005 38117 ft 374 kts 215°
2026-05-04 01:08 35.31743 -77.05846 38118 ft 375 kts 216°
2026-05-04 01:08 35.27099 -77.08678 38113 ft 374 kts 215°
2026-05-04 01:09 35.22449 -77.11507 38118 ft 373 kts 215°
2026-05-04 01:09 35.17795 -77.14335 38115 ft 373 kts 216°
2026-05-04 01:10 35.13157 -77.17155 38115 ft 371 kts 216°
2026-05-04 01:10 35.08548 -77.19950 38116 ft 372 kts 215°
2026-05-04 01:11 35.03923 -77.22751 38109 ft 372 kts 215°
2026-05-04 01:11 34.99287 -77.25555 38116 ft 371 kts 216°
2026-05-04 01:12 34.94673 -77.28343 38116 ft 370 kts 215°
2026-05-04 01:12 34.90061 -77.31126 38112 ft 371 kts 215°
2026-05-04 01:13 34.85445 -77.33906 38116 ft 371 kts 215°
2026-05-04 01:13 34.80825 -77.36687 38115 ft 371 kts 215°
2026-05-04 01:14 34.76201 -77.39468 38112 ft 371 kts 215°
2026-05-04 01:14 34.71596 -77.42233 38117 ft 370 kts 215°
2026-05-04 01:15 34.66970 -77.45005 38115 ft 371 kts 215°
2026-05-04 01:15 34.62353 -77.47771 38117 ft 370 kts 215°
2026-05-04 01:16 34.57729 -77.50513 38119 ft 371 kts 213°
2026-05-04 01:16 34.52915 -77.52885 38123 ft 377 kts 210°
2026-05-04 01:17 34.47841 -77.54750 38124 ft 384 kts 205°
2026-05-04 01:17 34.42565 -77.56074 38128 ft 388 kts 201°
2026-05-04 01:18 34.37277 -77.57257 38123 ft 387 kts 201°
2026-05-04 01:18 34.31977 -77.58438 38119 ft 387 kts 201°
2026-05-04 01:19 34.26698 -77.59609 38122 ft 387 kts 201°
2026-05-04 01:19 34.21396 -77.60777 38124 ft 386 kts 201°
2026-05-04 01:20 34.16132 -77.61935 38124 ft 388 kts 201°
2026-05-04 01:20 34.10813 -77.63105 38123 ft 387 kts 201°
2026-05-04 01:21 34.05509 -77.64269 38124 ft 386 kts 201°
2026-05-04 01:21 34.00225 -77.65424 38131 ft 387 kts 201°
2026-05-04 01:22 33.94930 -77.66582 38116 ft 387 kts 201°
2026-05-04 01:22 33.89623 -77.67743 38119 ft 386 kts 200°
2026-05-04 01:23 33.84365 -77.68887 38122 ft 386 kts 201°
2026-05-04 01:23 33.79073 -77.70040 38125 ft 385 kts 201°
2026-05-04 01:24 33.73808 -77.71187 38138 ft 384 kts 201°
2026-05-04 01:24 33.68550 -77.72400 38138 ft 382 kts 203°
2026-05-04 01:25 33.63445 -77.74017 38142 ft 379 kts 205°
2026-05-04 01:25 33.58371 -77.75666 38143 ft 378 kts 205°
2026-05-04 01:26 33.53280 -77.77322 38134 ft 378 kts 205°
2026-05-04 01:26 33.48234 -77.78969 38140 ft 376 kts 205°
2026-05-04 01:27 33.43178 -77.80612 38139 ft 376 kts 205°
2026-05-04 01:27 33.38128 -77.82258 38146 ft 375 kts 205°
2026-05-04 01:28 33.33091 -77.83896 38140 ft 377 kts 205°
2026-05-04 01:28 33.28048 -77.85533 38144 ft 375 kts 205°
2026-05-04 01:29 33.22998 -77.87172 38150 ft 377 kts 205°
2026-05-04 01:29 33.17935 -77.88814 38150 ft 376 kts 205°
2026-05-04 01:30 33.12907 -77.90440 38149 ft 374 kts 205°
2026-05-04 01:30 33.07879 -77.92062 38160 ft 373 kts 205°
2026-05-04 01:31 33.02876 -77.93696 38143 ft 373 kts 205°
2026-05-04 01:31 32.97906 -77.95405 38151 ft 371 kts 206°
2026-05-04 01:32 32.92944 -77.97108 38157 ft 371 kts 206°
2026-05-04 01:32 32.87986 -77.98804 38159 ft 372 kts 206°
2026-05-04 01:33 32.83010 -78.00504 38158 ft 371 kts 206°
2026-05-04 01:33 32.78059 -78.02191 38152 ft 371 kts 206°
2026-05-04 01:34 32.73110 -78.03875 38146 ft 370 kts 206°
2026-05-04 01:34 32.68180 -78.05553 38147 ft 370 kts 206°
2026-05-04 01:35 32.63231 -78.07238 38146 ft 371 kts 206°
2026-05-04 01:35 32.58260 -78.08924 38145 ft 369 kts 206°
2026-05-04 01:36 32.53329 -78.10594 38148 ft 369 kts 206°
2026-05-04 01:36 32.48399 -78.12265 38148 ft 368 kts 206°
2026-05-04 01:37 32.43452 -78.13936 38147 ft 368 kts 206°
2026-05-04 01:37 32.38530 -78.15598 38149 ft 367 kts 206°
2026-05-04 01:38 32.33614 -78.17257 38150 ft 368 kts 206°
2026-05-04 01:38 32.28714 -78.18910 38152 ft 368 kts 206°
2026-05-04 01:39 32.23798 -78.20566 38155 ft 368 kts 206°
2026-05-04 01:39 32.18893 -78.22219 38154 ft 367 kts 206°
2026-05-04 01:40 32.13988 -78.23865 38156 ft 367 kts 206°
2026-05-04 01:40 32.09068 -78.25514 38156 ft 367 kts 206°
2026-05-04 01:41 32.04165 -78.27161 38157 ft 366 kts 206°
2026-05-04 01:41 31.99246 -78.28805 38151 ft 367 kts 206°
2026-05-04 01:42 31.94335 -78.30450 38151 ft 367 kts 206°
2026-05-04 01:42 31.89451 -78.32079 38143 ft 366 kts 206°
2026-05-04 01:43 31.84551 -78.33718 38168 ft 366 kts 206°
2026-05-04 01:43 31.79653 -78.35352 38122 ft 366 kts 206°
2026-05-04 01:44 31.74741 -78.36987 38156 ft 365 kts 206°
2026-05-04 01:44 31.69873 -78.38604 38144 ft 363 kts 206°
2026-05-04 01:45 31.64998 -78.40222 38143 ft 365 kts 206°
2026-05-04 01:45 31.57649 -78.42660 38129 ft 364 kts 207°
2026-05-04 01:46 31.52811 -78.44264 38149 ft 363 kts 206°
2026-05-04 01:46 31.47918 -78.45860 38140 ft 364 kts 206°
2026-05-04 01:47 31.43049 -78.47439 38137 ft 362 kts 206°
2026-05-04 01:47 31.38216 -78.49007 38150 ft 363 kts 206°
2026-05-04 01:48 31.33339 -78.50589 38135 ft 361 kts 206°
2026-05-04 01:48 31.28480 -78.52161 38132 ft 362 kts 206°
2026-05-04 01:49 31.23647 -78.53719 38130 ft 362 kts 207°
2026-05-04 01:49 31.18799 -78.55288 38136 ft 360 kts 206°
2026-05-04 01:50 31.13983 -78.56841 38128 ft 358 kts 206°
2026-05-04 01:50 31.09187 -78.58387 38134 ft 359 kts 206°
2026-05-04 01:51 31.04362 -78.59940 38130 ft 358 kts 206°
2026-05-04 01:51 30.99572 -78.61479 38132 ft 358 kts 206°
2026-05-04 01:52 30.94751 -78.63030 38132 ft 358 kts 207°
2026-05-04 01:52 30.89968 -78.64568 38139 ft 357 kts 206°
2026-05-04 01:53 30.85166 -78.66103 38128 ft 356 kts 207°
2026-05-04 01:53 30.80371 -78.67639 38126 ft 357 kts 207°
2026-05-04 01:54 30.75588 -78.69171 38133 ft 357 kts 207°
2026-05-04 01:54 30.70790 -78.70707 38129 ft 357 kts 206°
2026-05-04 01:55 30.66006 -78.72233 38129 ft 357 kts 207°
2026-05-04 01:55 30.61199 -78.73767 38126 ft 357 kts 207°
2026-05-04 01:56 30.56422 -78.75288 38123 ft 357 kts 206°
2026-05-04 01:56 30.51627 -78.76815 38129 ft 356 kts 206°
2026-05-04 01:57 30.46843 -78.78336 38129 ft 357 kts 206°
2026-05-04 01:57 30.42075 -78.79846 38116 ft 355 kts 207°
2026-05-04 01:58 30.37282 -78.81371 38126 ft 355 kts 207°
2026-05-04 01:58 30.32532 -78.82875 38123 ft 355 kts 207°
2026-05-04 01:59 30.27768 -78.84383 38116 ft 355 kts 206°
2026-05-04 01:59 30.23017 -78.85889 38118 ft 355 kts 207°
2026-05-04 02:00 30.18246 -78.87394 38119 ft 354 kts 207°
2026-05-04 02:00 30.13506 -78.88895 38121 ft 354 kts 207°
2026-05-04 02:01 30.08757 -78.90394 38113 ft 353 kts 207°